Regional Weather Roundup
Issued by NWS Spokane, WA

Home | Current Version | Previous Version | Text Only | Print | Product List | Glossary On
Versions: 1 2 3 4 5 6 7 8 9 10 11 12 13 14 15 16 17 18 19 20 21 22 23 24 25 26 27 28 29 30 31 32 33 34 35 36 37 38 39 40 41 42 43 44 45 46 47 48 49 50
000
NZUS01 KOTX 272210
RWROTX
EASTERN WASHINGTON/NORTHERN IDAHO ROUNDUP
NATIONAL WEATHER SERVICE, SPOKANE WA
200 PM PST FRI FEB 27 2015

Note: "fair" indicated few or no clouds below 12,000 feet with no
significant weather and/or obstructions to visibility.

...NORTHEAST WASHINGTON AND NORTHERN IDAHO PANHANDLE...

CITY           SKY/WX    TMP DP  RH WIND       PRES   REMARKS
SPOKANE INTL   PTSUNNY   46  23  40 NE9       29.76F
SPOKANE DOWNTO PTSUNNY   49  24  37 N7G16     29.78F
COEUR D ALENE  MOSUNNY   48  25  40 NE14G23   29.76F
DEER PARK      MOSUNNY   48  23  37 NE9G21    29.80S
SANDPOINT      PTSUNNY   45  23  42 NE16G24   29.83F
BONNERS FERRY  MOCLDY    41  18  38 E6        29.88S

...SOUTHEAST WASHINGTON AND SOUTHERN IDAHO PANHANDLE...

CITY           SKY/WX    TMP DP  RH WIND       PRES   REMARKS
WALLA WALLA    CLOUDY    52  37  56 W6        29.68F
PULLMAN/MOSCOW MOSUNNY   49  28  44 SE12      29.72F
LEWISTON       MOSUNNY   54  35  48 E8        29.70F
LOWELL           N/A     52  31  44 CALM      29.70F

...COLUMBIA BASIN...

CITY           SKY/WX    TMP DP  RH WIND       PRES   REMARKS
EPHRATA        CLOUDY    53  30  41 NE17      29.77F
MOSES LAKE     CLOUDY    53  30  41 NE21      29.76F
TRI CITIES     CLOUDY    57  34  41 NE10      29.71F
HERMISTON      LGT RAIN  50  38  63 CALM      29.71F
PENDLETON      LGT RAIN  47  39  74 N10       29.68F

...EAST SLOPES CASCADES...

CITY           SKY/WX    TMP DP  RH WIND       PRES   REMARKS
THE DALLES     LGT RAIN  47  41  80 E8        29.75S
YAKIMA         CLOUDY    51  37  58 NE7       29.76F
ELLENSBURG     CLOUDY    46  36  68 W8        29.76F
WENATCHEE      CLOUDY    43  36  76 NW8       29.82S
OMAK           CLOUDY    42  33  70 N17       29.86S

...SOUTHERN BRITISH COLUMBIA...

CITY           SKY/WX    TMP DP  RH WIND       PRES   REMARKS
PENTICTON      PTSUNNY   48  25  40 N16G23    29.90S
CASTLEGAR      CLOUDY    37  32  81 N10       29.91S
CRANBROOK      FLURRIES  34  14  44 VRB6      29.93R WCI  29

...WESTERN MONTANA...

CITY           SKY/WX    TMP DP  RH WIND       PRES   REMARKS
MISSOULA       CLOUDY    39   9  29 E16       29.83F

...NEIGHBORING CITIES...

CITY           SKY/WX    TMP DP  RH WIND       PRES   REMARKS
SEATTLE        CLOUDY    50  42  74 N16       29.76S
CALGARY        CRYSTALS  18  10  73 N12G18    30.08S WCI   5



USA.gov is the U.S. government's official web portal to all federal, state and local government web resources and services.